Terug naar catalogus

SDA_1664

ActiefMilitairPO
NORAD 65974·PAYLOAD·🇺🇸 United States

Gelanceerd Oct 15, 2025 vanaf Vandenberg Space Force Base

Loading…

Volgende Passages (komende 24 uur)

TLE

VersSource: Space-Track

Epoch: Sep 14, 2026, 01:03 UTC

1 65974U 25230A   26257.04417191  .00000172  00000-0  15922-3 0  9994
2 65974  81.2992 130.7696 0001699  63.0550 297.0777 13.78096028 46014

Volg SDA_1664 in realtime met AllMySat

Download on the App Store